| time (UTC) | temp F | wind direction | speed MPH | gust MPH | rain 1hr in | rain 24hr in | rain mn in | humidity % | barometer mb |
| 20260505034504 | 61 | 181 | 0.0 | 0.0 | 0.00 | 0.00 | 0.00 | 83 | 1018.3 |
| 20260505034003 | 61 | 181 | 0.0 | 0.0 | 0.00 | 0.00 | 0.00 | 82 | 1018.3 |
| 20260505033003 | 61 | 181 | 0.0 | 1.0 | 0.00 | 0.00 | 0.00 | 82 | 1018.3 |
| 20260505032503 | 62 | 181 | 0.0 | 2.0 | 0.00 | 0.00 | 0.00 | 81 | 1018.4 |
| 20260505032004 | 62 | 184 | 0.0 | 2.0 | 0.00 | 0.00 | 0.00 | 81 | 1018.2 |
| 20260505031504 | 62 | 157 | 0.0 | 2.0 | 0.00 | 0.00 | 0.00 | 81 | 1018.2 |
| 20260505031003 | 62 | 181 | 0.0 | 1.0 | 0.00 | 0.00 | 0.00 | 80 | 1018.1 |
| 20260505030504 | 62 | 113 | 0.0 | 2.0 | 0.00 | 0.00 | 0.00 | 1018.1 | |
| 20260505030006 | 63 | 135 | 0.0 | 2.0 | 0.00 | 0.00 | 0.00 | 79 | 1018.2 |
| 20260505025503 | 63 | 91 | 0.0 | 2.0 | 0.00 | 0.00 | 0.00 | 79 | 1018.3 |
| 20260505025004 | 63 | 193 | 0.0 | 2.0 | 0.00 | 0.00 | 0.00 | 79 | 1018.3 |
| 20260505024510 | 63 | 137 | 0.0 | 2.0 | 0.00 | 0.00 | 0.00 | 79 | 1018.2 |
| 20260505024005 | 63 | 177 | 0.0 | 2.0 | 0.00 | 0.00 | 0.00 | 78 | 1018.1 |
| 20260505023504 | 64 | 145 | 0.0 | 2.0 | 0.00 | 0.00 | 0.00 | 78 | 1018.0 |
| 20260505023006 | 64 | 179 | 0.0 | 2.0 | 0.00 | 0.00 | 0.00 | 77 | 1018.0 |
| 20260505022004 | 64 | 161 | 0.0 | 2.0 | 0.00 | 0.00 | 0.00 | 76 | 1018.0 |
| 20260505021503 | 65 | 136 | 0.0 | 2.0 | 0.00 | 0.00 | 0.00 | 75 | 1018.0 |
| 20260505021004 | 65 | 130 | 0.0 | 2.0 | 0.00 | 0.00 | 0.00 | 75 | 1017.9 |
| 20260505020503 | 65 | 151 | 0.0 | 2.0 | 0.00 | 0.00 | 0.00 | 75 | 1018.0 |
| 20260505020008 | 65 | 223 | 0.0 | 4.0 | 0.00 | 0.00 | 0.00 | 75 | 1017.7 |
| 20260505015503 | 65 | 115 | 0.0 | 4.0 | 0.00 | 0.00 | 0.00 | 74 | 1017.6 |
| 20260505015004 | 66 | 149 | 0.0 | 2.0 | 0.00 | 0.00 | 0.00 | 74 | 1017.6 |
| 20260505014510 | 66 | 127 | 0.0 | 2.0 | 0.00 | 0.00 | 0.00 | 73 | 1017.6 |
| 20260505014005 | 66 | 101 | 1.0 | 4.0 | 0.00 | 0.00 | 0.00 | 73 | 1017.7 |
| 20260505013507 | 66 | 165 | 1.0 | 4.0 | 0.00 | 0.00 | 0.00 | 73 | 1017.6 |
| 20260505013019 | 66 | 174 | 1.0 | 4.0 | 0.00 | 0.00 | 0.00 | 73 | 1017.7 |
| 20260505012505 | 66 | 167 | 0.0 | 3.0 | 0.00 | 0.00 | 0.00 | 73 | 1017.6 |
| 20260505011506 | 67 | 148 | 1.0 | 3.0 | 0.00 | 0.00 | 0.00 | 72 | 1017.6 |
| 20260505010504 | 67 | 69 | 1.0 | 2.0 | 0.00 | 0.00 | 0.00 | 71 | 1017.7 |
| 20260505010004 | 67 | 116 | 0.0 | 2.0 | 0.00 | 0.00 | 0.00 | 70 | 1017.6 |
| 20260505005504 | 68 | 120 | 0.0 | 3.0 | 0.00 | 0.00 | 0.00 | 70 | 1017.5 |
| 20260505005004 | 68 | 200 | 0.0 | 3.0 | 0.00 | 0.00 | 0.00 | 69 | 1017.5 |
| 20260505004513 | 68 | 108 | 0.0 | 3.0 | 0.00 | 0.00 | 0.00 | 69 | 1017.4 |
| 20260505004003 | 69 | 129 | 1.0 | 3.0 | 0.00 | 0.00 | 0.00 | 68 | 1017.4 |
| 20260505003506 | 69 | 154 | 1.0 | 3.0 | 0.00 | 0.00 | 0.00 | 68 | 1017.5 |
| 20260505003014 | 69 | 161 | 1.0 | 5.0 | 0.00 | 0.00 | 0.00 | 67 | 1017.5 |
| 20260505002508 | 70 | 166 | 1.0 | 5.0 | 0.00 | 0.00 | 0.00 | 66 | 1017.4 |
| 20260505002005 | 70 | 104 | 1.0 | 6.0 | 0.00 | 0.00 | 0.00 | 65 | 1017.3 |
| 20260505001514 | 71 | 150 | 2.0 | 6.0 | 0.00 | 0.00 | 0.00 | 65 | 1017.3 |
| 20260505001005 | 71 | 156 | 1.0 | 4.0 | 0.00 | 0.00 | 0.00 | 64 | 1017.3 |
| 20260505000503 | 71 | 141 | 1.0 | 6.0 | 0.00 | 0.00 | 0.00 | 63 | 1017.3 |
| 20260504235503 | 72 | 107 | 3.0 | 6.0 | 0.00 | 0.00 | 0.00 | 61 | 1017.3 |
| 20260504235004 | 73 | 107 | 1.0 | 5.0 | 0.00 | 0.00 | 0.00 | 61 | 1017.4 |
| 20260504234507 | 73 | 150 | 3.0 | 10.0 | 0.00 | 0.00 | 0.00 | 60 | 1017.3 |
| 20260504234004 | 73 | 77 | 3.0 | 10.0 | 0.00 | 0.00 | 0.00 | 60 | 1017.3 |
| 20260504233503 | 73 | 99 | 4.0 | 11.0 | 0.00 | 0.00 | 0.00 | 59 | 1017.2 |
| 20260504233017 | 74 | 98 | 3.0 | 11.0 | 0.00 | 0.00 | 0.00 | 58 | 1017.2 |
| 20260504232504 | 74 | 174 | 2.0 | 7.0 | 0.00 | 0.00 | 0.00 | 57 | 1017.1 |
| 20260504232003 | 74 | 162 | 3.0 | 8.0 | 0.00 | 0.00 | 0.00 | 57 | 1017.1 |
| 20260504231523 | 74 | 240 | 2.0 | 9.0 | 0.00 | 0.00 | 0.00 | 57 | 1017.2 |
| 20260504231010 | 75 | 91 | 5.0 | 9.0 | 0.00 | 0.00 | 0.00 | 56 | 1017.1 |
| 20260504230506 | 75 | 44 | 3.0 | 8.0 | 0.00 | 0.00 | 0.00 | 56 | 1017.1 |
| 20260504230016 | 75 | 95 | 4.0 | 12.0 | 0.00 | 0.00 | 0.00 | 55 | 1017.0 |
| 20260504225503 | 75 | 119 | 3.0 | 12.0 | 0.00 | 0.00 | 0.00 | 55 | 1016.9 |
| 20260504225007 | 75 | 82 | 6.0 | 12.0 | 0.00 | 0.00 | 0.00 | 55 | 1017.0 |
| 20260504224514 | 75 | 190 | 3.0 | 14.0 | 0.00 | 0.00 | 0.00 | 53 | 1017.1 |
| 20260504224005 | 75 | 79 | 5.0 | 14.0 | 0.00 | 0.00 | 0.00 | 53 | 1017.0 |
| 20260504223504 | 75 | 94 | 8.0 | 15.0 | 0.00 | 0.00 | 0.00 | 53 | 1017.0 |
| 20260504223012 | 76 | 108 | 6.0 | 13.0 | 0.00 | 0.00 | 0.00 | 52 | 1016.8 |
| 20260504222504 | 76 | 108 | 8.0 | 13.0 | 0.00 | 0.00 | 0.00 | 51 | 1017.0 |
| 20260504222006 | 76 | 174 | 4.0 | 14.0 | 0.00 | 0.00 | 0.00 | 51 | 1017.0 |
| 20260504221514 | 76 | 71 | 5.0 | 14.0 | 0.00 | 0.00 | 0.00 | 51 | 1017.0 |
| 20260504221008 | 76 | 120 | 3.0 | 12.0 | 0.00 | 0.00 | 0.00 | 50 | 1017.1 |
| 20260504220504 | 77 | 104 | 5.0 | 12.0 | 0.00 | 0.00 | 0.00 | 50 | 1017.1 |
| 20260504220018 | 77 | 86 | 5.0 | 12.0 | 0.00 | 0.00 | 0.00 | 49 | 1017.1 |
| 20260504215509 | 77 | 73 | 3.0 | 14.0 | 0.00 | 0.00 | 0.00 | 48 | 1017.0 |
| 20260504215009 | 77 | 119 | 3.0 | 14.0 | 0.00 | 0.00 | 0.00 | 48 | 1017.0 |
| 20260504214514 | 77 | 127 | 2.0 | 10.0 | 0.00 | 0.00 | 0.00 | 47 | 1017.1 |
| 20260504214011 | 77 | 142 | 4.0 | 10.0 | 0.00 | 0.00 | 0.00 | 45 | 1017.1 |
| 20260504213507 | 77 | 238 | 4.0 | 10.0 | 0.00 | 0.00 | 0.00 | 47 | 1017.0 |
| 20260504212006 | 78 | 116 | 6.0 | 9.0 | 0.00 | 0.00 | 0.00 | 45 | 1016.9 |
| 20260504211515 | 78 | 159 | 5.0 | 10.0 | 0.00 | 0.00 | 0.00 | 44 | 1016.9 |
| 20260504211004 | 78 | 101 | 5.0 | 9.0 | 0.00 | 0.00 | 0.00 | 43 | 1016.9 |
| 20260504210507 | 78 | 60 | 5.0 | 9.0 | 0.00 | 0.00 | 0.00 | 42 | 1017.0 |
| 20260504210003 | 78 | 76 | 4.0 | 9.0 | 0.00 | 0.00 | 0.00 | 42 | 1017.0 |
| 20260504205503 | 78 | 186 | 4.0 | 9.0 | 0.00 | 0.00 | 0.00 | 43 | 1016.9 |
| 20260504205007 | 78 | 84 | 5.0 | 14.0 | 0.00 | 0.00 | 0.00 | 41 | 1016.8 |
| 20260504204503 | 78 | 121 | 5.0 | 14.0 | 0.00 | 0.00 | 0.00 | 41 | 1016.9 |
| 20260504204003 | 78 | 169 | 6.0 | 11.0 | 0.00 | 0.00 | 0.00 | 40 | 1017.1 |
| 20260504203506 | 79 | 170 | 6.0 | 11.0 | 0.00 | 0.00 | 0.00 | 39 | 1017.1 |
| 20260504203019 | 78 | 148 | 6.0 | 11.0 | 0.00 | 0.00 | 0.00 | 38 | 1017.1 |
| 20260504202508 | 78 | 120 | 4.0 | 11.0 | 0.00 | 0.00 | 0.00 | 38 | 1017.1 |
| 20260504201511 | 79 | 213 | 2.0 | 10.0 | 0.00 | 0.00 | 0.00 | 37 | 1017.1 |
| 20260504201005 | 79 | 183 | 5.0 | 10.0 | 0.00 | 0.00 | 0.00 | 37 | 1017.3 |
| 20260504200003 | 78 | 75 | 3.0 | 11.0 | 0.00 | 0.00 | 0.00 | 36 | 1017.4 |
| 20260504195503 | 78 | 120 | 6.0 | 12.0 | 0.00 | 0.00 | 0.00 | 35 | 1017.5 |
| 20260504195007 | 78 | 146 | 5.0 | 12.0 | 0.00 | 0.00 | 0.00 | 37 | 1017.4 |
| 20260504194504 | 78 | 65 | 4.0 | 13.0 | 0.00 | 0.00 | 0.00 | 35 | 1017.6 |
| 20260504194003 | 78 | 165 | 7.0 | 13.0 | 0.00 | 0.00 | 0.00 | 34 | 1017.6 |
| 20260504193505 | 78 | 188 | 3.0 | 9.0 | 0.00 | 0.00 | 0.00 | 35 | 1017.7 |
| 20260504193020 | 79 | 160 | 6.0 | 9.0 | 0.00 | 0.00 | 0.00 | 34 | 1017.8 |
| 20260504192504 | 79 | 207 | 2.0 | 9.0 | 0.00 | 0.00 | 0.00 | 34 | 1017.9 |
| 20260504192004 | 78 | 122 | 5.0 | 9.0 | 0.00 | 0.00 | 0.00 | 35 | 1017.9 |
| 20260504191512 | 78 | 105 | 3.0 | 8.0 | 0.00 | 0.00 | 0.00 | 35 | 1017.9 |
| 20260504191006 | 78 | 96 | 3.0 | 8.0 | 0.00 | 0.00 | 0.00 | 34 | 1017.9 |
| 20260504190504 | 78 | 104 | 5.0 | 8.0 | 0.00 | 0.00 | 0.00 | 35 | 1018.1 |
| 20260504190020 | 78 | 113 | 4.0 | 10.0 | 0.00 | 0.00 | 0.00 | 35 | 1018.1 |
| 20260504185509 | 78 | 134 | 6.0 | 10.0 | 0.00 | 0.00 | 0.00 | 36 | 1018.1 |
| 20260504185007 | 77 | 269 | 3.0 | 16.0 | 0.00 | 0.00 | 0.00 | 36 | 1018.0 |
| 20260504184509 | 77 | 110 | 3.0 | 16.0 | 0.00 | 0.00 | 0.00 | 37 | 1018.1 |
| 20260504184003 | 77 | 165 | 5.0 | 11.0 | 0.00 | 0.00 | 0.00 | 37 | 1018.1 |
| 20260504183504 | 78 | 101 | 5.0 | 11.0 | 0.00 | 0.00 | 0.00 | 38 | 1018.1 |
| 20260504183007 | 77 | 19 | 1.0 | 13.0 | 0.00 | 0.00 | 0.00 | 38 | 1018.3 |
| 20260504182503 | 78 | 119 | 8.0 | 13.0 | 0.00 | 0.00 | 0.00 | 38 | 1018.3 |
| 20260504182004 | 77 | 155 | 4.0 | 12.0 | 0.00 | 0.00 | 0.00 | 38 | 1018.2 |
| 20260504181508 | 78 | 158 | 6.0 | 12.0 | 0.00 | 0.00 | 0.00 | 37 | 1018.2 |
| 20260504181004 | 77 | 174 | 5.0 | 13.0 | 0.00 | 0.00 | 0.00 | 39 | 1018.2 |
| 20260504180506 | 77 | 154 | 6.0 | 13.0 | 0.00 | 0.00 | 0.00 | 39 | 1018.2 |
| 20260504180020 | 77 | 168 | 6.0 | 14.0 | 0.00 | 0.00 | 0.00 | 39 | 1018.3 |
| 20260504175509 | 78 | 126 | 8.0 | 14.0 | 0.00 | 0.00 | 0.00 | 39 | 1018.4 |
| 20260504175010 | 78 | 103 | 5.0 | 13.0 | 0.00 | 0.00 | 0.00 | 39 | 1018.4 |
| 20260504174520 | 78 | 162 | 6.0 | 13.0 | 0.00 | 0.00 | 0.00 | 39 | 1018.5 |
| 20260504174008 | 77 | 117 | 5.0 | 10.0 | 0.00 | 0.00 | 0.00 | 37 | 1018.5 |
| 20260504173503 | 78 | 172 | 3.0 | 10.0 | 0.00 | 0.00 | 0.00 | 37 | 1018.8 |
| 20260504173010 | 78 | 188 | 7.0 | 9.0 | 0.00 | 0.00 | 0.00 | 38 | 1018.8 |
| 20260504172508 | 78 | 212 | 5.0 | 7.0 | 0.00 | 0.00 | 0.00 | 39 | 1018.8 |
| 20260504172003 | 77 | 246 | 3.0 | 8.0 | 0.00 | 0.00 | 0.00 | 36 | 1018.8 |
| 20260504171508 | 77 | 184 | 4.0 | 8.0 | 0.00 | 0.00 | 0.00 | 36 | 1019.0 |
| 20260504171005 | 77 | 197 | 2.0 | 7.0 | 0.00 | 0.00 | 0.00 | 37 | 1018.9 |
| 20260504170506 | 77 | 356 | 1.0 | 10.0 | 0.00 | 0.00 | 0.00 | 35 | 1018.9 |
| 20260504150504 | 73 | 15 | 2.0 | 6.0 | 0.00 | 0.01 | 0.00 | 38 | 1019.6 |
| 20260504141004 | 71 | 140 | 4.0 | 8.0 | 0.00 | 0.01 | 0.00 | 42 | 1019.9 |
| 20260504140501 | 71 | 84 | 2.0 | 5.0 | 0.00 | 0.01 | 0.00 | 46 | 1020.0 |
| 20260504100503 | 48 | 1 | 0.0 | 0.0 | 0.00 | 0.01 | 0.00 | 93 | 1018.8 |
| 20260504081007 | 50 | 1 | 0.0 | 0.0 | 0.00 | 0.01 | 0.00 | 92 | 1018.8 |
| 20260504044504 | 53 | 101 | 0.0 | 2.0 | 0.00 | 0.01 | 0.00 | 90 | 1020.1 |
| 20260504042002 | 54 | 101 | 0.0 | 0.0 | 0.00 | 0.01 | 0.00 | 89 | 1020.0 |
| 20260504041510 | 54 | 101 | 0.0 | 0.0 | 0.00 | 0.01 | 0.00 | 89 | 1020.1 |
| 20260504041004 | 54 | 101 | 0.0 | 0.0 | 0.00 | 0.01 | 0.00 | 88 | 1020.0 |
| 20260504040504 | 54 | 101 | 0.0 | 0.0 | 0.00 | 0.01 | 0.00 | 88 | 1020.0 |
| 20260504040018 | 54 | 101 | 0.0 | 0.0 | 0.00 | 0.01 | 0.00 | 88 | 1020.0 |
| 20260504035506 | 55 | 101 | 0.0 | 0.0 | 0.00 | 0.01 | 0.01 | 88 | 1020.0 |
| 20260504035007 | 55 | 101 | 0.0 | 0.0 | 0.00 | 0.01 | 0.01 | 88 | 1020.0 |